Погода в Крутом Логе

Россия / Белгородская область     50˚31′09″N   36˚44′14″E
темп.,
°C
ветер,
м/с
пор.,
м/с
влажн.,
%
обл.,
%
осадки,
мм/ч
давл.,
гПа
погр.,
м
15 января, пт
пт1500:00−7˚ююв239680 0.1 100873
03:00−7˚юв229786 0.2 100855
06:00−5˚ююв2497100 0.3 1008123
09:00−6˚ю2297100 0.3 100823
12:00−4˚ю2495100 0.0 1009225
15:00−4˚ююв2395100 0.0 1008228
18:00−6˚ююв2396100 0.0 100850
21:00−6˚ю3497100 0.1 100884
16 января, сб
сб1600:00−6˚юз369698 0.2 1008225
03:00−10˚з599299 0.5 1008542
06:00−12˚з61091100 0.1 1009575
09:00−14˚з61192100 0.1 1011491
12:00−13˚з6108799 0.0 1012627
15:00−12˚з698496 0.0 1013792
18:00−14˚зюз369399 0.0 1015160
21:00−15˚зюз369695 0.1 1016151
17 января, вс
вс1700:00−16˚з359662 0.0 1016120
03:00−18˚з239636 0.0 101745
06:00−18˚зсз23950 0.0 101656
09:00−19˚зсз24950 0.0 101784
12:00−16˚сз34870 0.0 1016322
15:00−15˚сз338525 0.0 1017331
18:00−17˚ссз359476 0.0 1017120
21:00−18˚св129476 0.0 101821
18 января, пн
пн1800:00−17˚ссв2393100 0.0 1017180
03:00−17˚с2394100 0.0 1018148
06:00−17˚с1294100 0.0 1018147
09:00−16˚св2392100 0.0 1019239
12:00−15˚св1186100 0.0 1019327
15:00−14˚с1185100 0.0 1018366
18:00−16˚с2295100 0.0 101937
21:00−17˚ссв1196100 0.1 101921
19 января, вт
вт1900:00−18˚ссз119785 0.0 102020
03:00−18˚ссз129689 0.1 102026
06:00−20˚сз229680 0.0 102027
09:00−20˚ссз229664 0.0 102143
12:00−18˚сз238870 0.0 1021304
15:00−17˚сз338885 0.0 1021400
18:00−18˚сз229599 0.0 102238
21:00−19˚сз239584 0.0 102435